Location: Johnson City
(36.3130°N, 82.3540°W)
Time: 22:10:07
(UTC-04:00)

Envisat - Pass Details

Date: 19 February 2019
Orbit: 764 x 766 km, 98.1° (Epoch: 20 October)

Event Time Altitude Azimuth Distance (km) Brightness Sun altitude
Rises 19:24:57 0° 173° (S) 3,214 6.2 -14.9°
Reaches altitude 10° 19:27:15 10° 175° (S) 2,292 5.4 -15.4°
Maximum altitude 19:32:17 68° 258° (WSW) 823 3.3 -16.4°
Drops below altitude 10° 19:37:20 10° 342° (NNW) 2,306 5.7 -17.4°
Sets 19:39:40 0° 345° (NNW) 3,236 6.4 -17.9°
